Time,TemperatureF,DewpointF,PressureIn,WindDirection,WindDirectionDegrees,WindSpeedMPH,WindSpeedGustMPH,Humidity,HourlyPrecipIn,Conditions,Clouds,dailyrainin,SoftwareType,DateUTC
2013-06-06 00:02:00,62.0,55.4,29.53,ENE,67,0.0,0.0,79,0.00,,---,0.00,VWS V13.01,2013-06-06 07:02:00,
2013-06-06 00:07:00,62.0,55.4,29.52,ENE,67,0.0,0.0,79,0.00,,---,0.00,VWS V13.01,2013-06-06 07:07:00,
2013-06-06 00:12:00,61.0,54.5,29.52,ENE,67,0.0,0.0,79,0.00,,---,0.00,VWS V13.01,2013-06-06 07:12:00,
2013-06-06 00:17:00,61.0,54.5,29.53,East,90,0.0,0.0,79,0.00,,---,0.00,VWS V13.01,2013-06-06 07:17:00,
2013-06-06 00:22:00,61.0,54.5,29.53,ESE,112,0.0,0.0,79,0.00,,---,0.00,VWS V13.01,2013-06-06 07:22:00,
2013-06-06 00:27:00,61.0,54.5,29.53,ESE,112,0.0,0.0,79,0.00,,---,0.00,VWS V13.01,2013-06-06 07:27:00,
2013-06-06 00:32:00,61.0,54.5,29.53,ENE,67,0.0,0.0,79,0.00,,---,0.00,VWS V13.01,2013-06-06 07:32:00,
2013-06-06 00:37:00,61.0,54.5,29.53,ENE,67,0.0,0.0,79,0.00,,---,0.00,VWS V13.01,2013-06-06 07:37:00,
2013-06-06 00:42:00,61.0,54.5,29.53,NE,45,0.0,0.0,79,0.00,,---,0.00,VWS V13.01,2013-06-06 07:42:00,
2013-06-06 00:47:00,60.0,53.5,29.51,East,90,0.0,0.0,79,0.00,,---,0.00,VWS V13.01,2013-06-06 07:47:00,
2013-06-06 00:52:00,60.0,53.5,29.51,East,90,0.0,0.0,79,0.00,,---,0.00,VWS V13.01,2013-06-06 07:52:00,
2013-06-06 00:57:00,60.0,53.5,29.52,East,90,0.0,0.0,79,0.00,,---,0.00,VWS V13.01,2013-06-06 07:57:00,
2013-06-06 01:02:00,60.0,53.5,29.52,East,90,0.0,0.0,79,0.00,,---,0.00,VWS V13.01,2013-06-06 08:02:00,
2013-06-06 01:07:00,60.0,53.5,29.52,East,90,0.0,0.0,79,0.00,,---,0.00,VWS V13.01,2013-06-06 08:07:00,
2013-06-06 01:12:00,60.0,53.5,29.52,SE,135,0.0,0.0,79,0.00,,---,0.00,VWS V13.01,2013-06-06 08:12:00,
2013-06-06 01:17:00,60.0,53.5,29.52,ENE,67,0.0,0.0,79,0.00,,---,0.00,VWS V13.01,2013-06-06 08:17:00,
2013-06-06 01:22:00,60.0,53.5,29.52,ENE,67,0.0,0.0,79,0.00,,---,0.00,VWS V13.01,2013-06-06 08:22:00,
2013-06-06 01:27:00,60.0,53.5,29.53,NE,45,0.0,0.0,79,0.00,,---,0.00,VWS V13.01,2013-06-06 08:27:00,
2013-06-06 01:32:00,60.0,53.5,29.53,East,90,0.0,0.0,79,0.00,,---,0.00,VWS V13.01,2013-06-06 08:32:00,
2013-06-06 01:37:00,60.0,53.5,29.52,East,90,0.0,0.0,79,0.00,,---,0.00,VWS V13.01,2013-06-06 08:37:00,
2013-06-06 01:42:00,60.0,53.5,29.52,SSE,157,0.0,0.0,79,0.00,,---,0.00,VWS V13.01,2013-06-06 08:42:00,
2013-06-06 01:47:00,60.0,53.5,29.53,East,90,0.0,0.0,79,0.00,,---,0.00,VWS V13.01,2013-06-06 08:47:00,
2013-06-06 01:52:00,59.0,52.2,29.53,SE,135,0.0,0.0,78,0.00,,---,0.00,VWS V13.01,2013-06-06 08:52:00,
2013-06-06 01:57:00,59.0,52.2,29.53,SE,135,0.0,0.0,78,0.00,,---,0.00,VWS V13.01,2013-06-06 08:57:00,
2013-06-06 02:02:00,58.0,51.2,29.53,ESE,112,0.0,0.0,78,0.00,,---,0.00,VWS V13.01,2013-06-06 09:02:00,
2013-06-06 02:07:00,58.0,51.2,29.52,West,270,1.0,1.0,78,0.00,,---,0.00,VWS V13.01,2013-06-06 09:07:00,
2013-06-06 02:12:00,58.0,51.2,29.52,ENE,67,0.0,0.0,78,0.00,,---,0.00,VWS V13.01,2013-06-06 09:12:00,
2013-06-06 02:17:00,58.0,51.2,29.52,ENE,67,0.0,0.0,78,0.00,,---,0.00,VWS V13.01,2013-06-06 09:17:00,
2013-06-06 02:22:00,58.0,51.2,29.52,ENE,67,0.0,0.0,78,0.00,,---,0.00,VWS V13.01,2013-06-06 09:22:00,
2013-06-06 02:27:00,58.0,51.2,29.53,East,90,0.0,0.0,78,0.00,,---,0.00,VWS V13.01,2013-06-06 09:27:00,
2013-06-06 02:32:00,58.0,50.8,29.52,NNW,337,0.0,0.0,77,0.00,,---,0.00,VWS V13.01,2013-06-06 09:32:00,
2013-06-06 02:37:00,57.0,50.2,29.52,NE,45,0.0,0.0,78,0.00,,---,0.00,VWS V13.01,2013-06-06 09:37:00,
2013-06-06 02:42:00,57.0,50.2,29.52,SSE,157,0.0,0.0,78,0.00,,---,0.00,VWS V13.01,2013-06-06 09:42:00,
2013-06-06 02:47:00,57.0,50.2,29.52,SSE,157,0.0,0.0,78,0.00,,---,0.00,VWS V13.01,2013-06-06 09:47:00,
2013-06-06 02:52:00,58.0,50.8,29.53,SSE,157,0.0,0.0,77,0.00,,---,0.00,VWS V13.01,2013-06-06 09:52:00,
2013-06-06 02:57:00,57.0,50.2,29.53,SSE,157,0.0,0.0,78,0.00,,---,0.00,VWS V13.01,2013-06-06 09:57:00,
2013-06-06 03:02:00,58.0,50.8,29.52,NE,45,0.0,0.0,77,0.00,,---,0.00,VWS V13.01,2013-06-06 10:02:00,
2013-06-06 03:07:00,57.0,50.2,29.52,East,90,0.0,0.0,78,0.00,,---,0.00,VWS V13.01,2013-06-06 10:07:00,
2013-06-06 03:12:00,58.0,50.8,29.53,NE,45,0.0,0.0,77,0.00,,---,0.00,VWS V13.01,2013-06-06 10:12:00,
2013-06-06 03:17:00,57.0,50.2,29.53,ESE,112,0.0,0.0,78,0.00,,---,0.00,VWS V13.01,2013-06-06 10:17:00,
2013-06-06 03:22:00,57.0,49.9,29.53,ESE,112,0.0,0.0,77,0.00,,---,0.00,VWS V13.01,2013-06-06 10:22:00,
2013-06-06 03:27:00,57.0,50.2,29.53,ESE,112,0.0,0.0,78,0.00,,---,0.00,VWS V13.01,2013-06-06 10:27:00,
2013-06-06 03:32:00,57.0,49.9,29.54,ESE,112,0.0,0.0,77,0.00,,---,0.00,VWS V13.01,2013-06-06 10:32:00,
2013-06-06 03:37:00,56.0,49.2,29.54,ESE,112,0.0,0.0,78,0.00,,---,0.00,VWS V13.01,2013-06-06 10:37:00,
2013-06-06 03:42:00,56.0,49.2,29.54,ESE,112,0.0,0.0,78,0.00,,---,0.00,VWS V13.01,2013-06-06 10:42:00,
2013-06-06 03:47:00,56.0,49.2,29.54,SSE,157,0.0,0.0,78,0.00,,---,0.00,VWS V13.01,2013-06-06 10:47:00,
2013-06-06 03:52:00,56.0,49.2,29.54,ESE,112,0.0,0.0,78,0.00,,---,0.00,VWS V13.01,2013-06-06 10:52:00,
2013-06-06 03:57:00,56.0,49.2,29.53,ESE,112,0.0,0.0,78,0.00,,---,0.00,VWS V13.01,2013-06-06 10:57:00,
2013-06-06 04:02:00,57.0,50.2,29.53,ESE,112,0.0,0.0,78,0.00,,---,0.00,VWS V13.01,2013-06-06 11:02:00,
2013-06-06 04:07:00,57.0,50.2,29.53,ESE,112,0.0,0.0,78,0.00,,---,0.00,VWS V13.01,2013-06-06 11:07:00,
2013-06-06 04:12:00,56.0,49.2,29.53,ESE,112,0.0,0.0,78,0.00,,---,0.00,VWS V13.01,2013-06-06 11:12:00,
2013-06-06 04:17:00,56.0,49.2,29.54,ESE,112,0.0,0.0,78,0.00,,---,0.00,VWS V13.01,2013-06-06 11:17:00,
2013-06-06 04:22:00,56.0,49.2,29.54,ESE,112,0.0,0.0,78,0.00,,---,0.00,VWS V13.01,2013-06-06 11:22:00,
2013-06-06 04:27:00,56.0,49.2,29.53,ESE,112,0.0,0.0,78,0.00,,---,0.00,VWS V13.01,2013-06-06 11:27:00,
2013-06-06 04:32:00,56.0,49.2,29.53,ESE,112,0.0,0.0,78,0.00,,---,0.00,VWS V13.01,2013-06-06 11:32:00,
2013-06-06 04:37:00,55.0,48.3,29.54,ESE,112,0.0,0.0,78,0.00,,---,0.00,VWS V13.01,2013-06-06 11:37:00,
2013-06-06 04:42:00,55.0,47.9,29.54,ESE,112,0.0,0.0,77,0.00,,---,0.00,VWS V13.01,2013-06-06 11:42:00,
2013-06-06 04:47:00,55.0,48.3,29.54,ESE,112,0.0,0.0,78,0.00,,---,0.00,VWS V13.01,2013-06-06 11:47:00,
2013-06-06 04:52:00,55.0,47.9,29.54,ESE,112,0.0,0.0,77,0.00,,---,0.00,VWS V13.01,2013-06-06 11:52:00,
2013-06-06 04:57:00,54.0,47.3,29.54,ESE,112,0.0,0.0,78,0.00,,---,0.00,VWS V13.01,2013-06-06 11:57:00,
2013-06-06 05:02:00,54.0,47.3,29.54,ESE,112,0.0,0.0,78,0.00,,---,0.00,VWS V13.01,2013-06-06 12:02:00,
2013-06-06 05:07:00,54.0,47.3,29.55,ESE,112,0.0,0.0,78,0.00,,---,0.00,VWS V13.01,2013-06-06 12:07:00,
2013-06-06 05:12:00,54.0,47.0,29.56,ESE,112,0.0,0.0,77,0.00,,---,0.00,VWS V13.01,2013-06-06 12:12:00,
2013-06-06 05:17:00,53.0,46.0,29.56,ESE,112,0.0,0.0,77,0.00,,---,0.00,VWS V13.01,2013-06-06 12:17:00,
2013-06-06 05:22:00,53.0,45.7,29.56,ESE,112,0.0,0.0,76,0.00,,---,0.00,VWS V13.01,2013-06-06 12:22:00,
2013-06-06 05:27:00,53.0,46.0,29.56,ESE,112,0.0,0.0,77,0.00,,---,0.00,VWS V13.01,2013-06-06 12:27:00,
2013-06-06 05:32:00,54.0,47.0,29.55,ESE,112,0.0,0.0,77,0.00,,---,0.00,VWS V13.01,2013-06-06 12:32:00,
2013-06-06 05:37:00,53.0,45.7,29.55,ESE,112,0.0,0.0,76,0.00,,---,0.00,VWS V13.01,2013-06-06 12:37:00,
2013-06-06 05:42:00,54.0,47.0,29.55,ESE,112,0.0,0.0,77,0.00,,---,0.00,VWS V13.01,2013-06-06 12:42:00,
2013-06-06 05:47:00,53.0,45.7,29.55,ESE,112,0.0,0.0,76,0.00,,---,0.00,VWS V13.01,2013-06-06 12:47:00,
2013-06-06 05:52:00,53.0,45.7,29.55,ESE,112,0.0,0.0,76,0.00,,---,0.00,VWS V13.01,2013-06-06 12:52:00,
2013-06-06 05:57:00,53.0,45.7,29.55,ESE,112,0.0,0.0,76,0.00,,---,0.00,VWS V13.01,2013-06-06 12:57:00,
2013-06-06 06:02:00,54.0,47.0,29.56,ESE,112,0.0,0.0,77,0.00,,---,0.00,VWS V13.01,2013-06-06 13:02:00,
2013-06-06 06:07:00,53.0,45.7,29.56,ESE,112,0.0,0.0,76,0.00,,---,0.00,VWS V13.01,2013-06-06 13:07:00,
2013-06-06 06:12:00,54.0,47.0,29.56,ESE,112,0.0,0.0,77,0.00,,---,0.00,VWS V13.01,2013-06-06 13:12:00,
2013-06-06 06:17:00,54.0,47.0,29.56,ESE,112,0.0,0.0,77,0.00,,---,0.00,VWS V13.01,2013-06-06 13:17:00,
2013-06-06 06:22:00,54.0,47.0,29.56,ESE,112,0.0,0.0,77,0.00,,---,0.00,VWS V13.01,2013-06-06 13:22:00,
2013-06-06 06:27:00,54.0,47.0,29.56,ESE,112,0.0,0.0,77,0.00,,---,0.00,VWS V13.01,2013-06-06 13:27:00,
2013-06-06 06:32:00,54.0,47.0,29.56,ESE,112,0.0,0.0,77,0.00,,---,0.00,VWS V13.01,2013-06-06 13:32:00,
2013-06-06 06:37:00,55.0,47.9,29.55,SE,135,0.0,0.0,77,0.00,,---,0.00,VWS V13.01,2013-06-06 13:37:00,
2013-06-06 06:42:00,55.0,47.9,29.55,SE,135,0.0,0.0,77,0.00,,---,0.00,VWS V13.01,2013-06-06 13:42:00,
2013-06-06 06:47:00,55.0,47.9,29.55,ESE,112,0.0,0.0,77,0.00,,---,0.00,VWS V13.01,2013-06-06 13:47:00,
2013-06-06 06:52:00,55.0,47.9,29.55,ESE,112,0.0,0.0,77,0.00,,---,0.00,VWS V13.01,2013-06-06 13:52:00,
2013-06-06 06:57:00,56.0,48.9,29.55,NE,45,0.0,0.0,77,0.00,,---,0.00,VWS V13.01,2013-06-06 13:57:00,
2013-06-06 07:02:00,56.0,48.9,29.55,NNE,22,0.0,0.0,77,0.00,,---,0.00,VWS V13.01,2013-06-06 14:02:00,
2013-06-06 07:07:00,56.0,48.9,29.54,NNE,22,0.0,0.0,77,0.00,,---,0.00,VWS V13.01,2013-06-06 14:07:00,
2013-06-06 07:12:00,57.0,49.9,29.53,SE,135,0.0,0.0,77,0.00,,---,0.00,VWS V13.01,2013-06-06 14:12:00,
2013-06-06 07:17:00,57.0,49.9,29.53,South,180,0.0,0.0,77,0.00,,---,0.00,VWS V13.01,2013-06-06 14:17:00,
2013-06-06 07:22:00,57.0,49.9,29.53,WSW,247,0.0,0.0,77,0.00,,---,0.00,VWS V13.01,2013-06-06 14:22:00,
2013-06-06 07:27:00,58.0,50.8,29.55,WSW,247,0.0,0.0,77,0.00,,---,0.00,VWS V13.01,2013-06-06 14:27:00,
2013-06-06 07:32:00,58.0,50.8,29.55,SW,225,0.0,0.0,77,0.00,,---,0.00,VWS V13.01,2013-06-06 14:32:00,
2013-06-06 07:37:00,58.0,50.8,29.55,SSW,202,0.0,0.0,77,0.00,,---,0.00,VWS V13.01,2013-06-06 14:37:00,
2013-06-06 07:42:00,59.0,52.2,29.54,West,270,0.0,0.0,78,0.00,,---,0.00,VWS V13.01,2013-06-06 14:42:00,
2013-06-06 07:47:00,59.0,52.2,29.54,WSW,247,0.0,0.0,78,0.00,,---,0.00,VWS V13.01,2013-06-06 14:47:00,
2013-06-06 07:52:00,59.0,52.2,29.55,South,180,0.0,0.0,78,0.00,,---,0.00,VWS V13.01,2013-06-06 14:52:00,
2013-06-06 07:57:00,59.0,52.2,29.55,ESE,112,0.0,0.0,78,0.00,,---,0.00,VWS V13.01,2013-06-06 14:57:00,
2013-06-06 08:02:00,60.0,53.5,29.55,SSW,202,0.0,0.0,79,0.00,,---,0.00,VWS V13.01,2013-06-06 15:02:00,
2013-06-06 08:07:00,60.0,53.5,29.53,South,180,0.0,0.0,79,0.00,,---,0.00,VWS V13.01,2013-06-06 15:07:00,
2013-06-06 08:12:00,60.0,53.5,29.53,SSE,157,0.0,0.0,79,0.00,,---,0.00,VWS V13.01,2013-06-06 15:12:00,
2013-06-06 08:17:00,61.0,54.5,29.55,SE,135,0.0,0.0,79,0.00,,---,0.00,VWS V13.01,2013-06-06 15:17:00,
2013-06-06 08:22:00,62.0,55.1,29.55,ESE,112,0.0,0.0,78,0.00,,---,0.00,VWS V13.01,2013-06-06 15:22:00,
2013-06-06 08:27:00,62.0,55.4,29.55,West,270,0.0,0.0,79,0.00,,---,0.00,VWS V13.01,2013-06-06 15:27:00,
2013-06-06 08:32:00,63.0,56.4,29.55,West,270,0.0,0.0,79,0.00,,---,0.00,VWS V13.01,2013-06-06 15:32:00,
2013-06-06 08:37:00,64.0,57.4,29.54,West,270,0.0,0.0,79,0.00,,---,0.00,VWS V13.01,2013-06-06 15:37:00,
2013-06-06 08:42:00,64.0,57.4,29.54,NW,315,0.0,0.0,79,0.00,,---,0.00,VWS V13.01,2013-06-06 15:42:00,
2013-06-06 08:47:00,65.0,58.3,29.53,SSE,157,0.0,0.0,79,0.00,,---,0.00,VWS V13.01,2013-06-06 15:47:00,
2013-06-06 08:52:00,65.0,58.3,29.53,South,180,0.0,0.0,79,0.00,,---,0.00,VWS V13.01,2013-06-06 15:52:00,
2013-06-06 08:57:00,65.0,58.3,29.53,SSW,202,0.0,0.0,79,0.00,,---,0.00,VWS V13.01,2013-06-06 15:57:00,
2013-06-06 09:02:00,66.0,59.3,29.53,WSW,247,0.0,0.0,79,0.00,,---,0.00,VWS V13.01,2013-06-06 16:02:00,
2013-06-06 09:07:00,66.0,59.3,29.53,West,270,0.0,0.0,79,0.00,,---,0.00,VWS V13.01,2013-06-06 16:07:00,
2013-06-06 09:12:00,67.0,60.3,29.53,WSW,247,0.0,0.0,79,0.00,,---,0.00,VWS V13.01,2013-06-06 16:12:00,
2013-06-06 09:17:00,67.0,60.3,29.53,SSE,157,0.0,0.0,79,0.00,,---,0.00,VWS V13.01,2013-06-06 16:17:00,
2013-06-06 09:22:00,67.0,60.3,29.52,West,270,0.0,1.0,79,0.00,,---,0.00,VWS V13.01,2013-06-06 16:22:00,
2013-06-06 09:27:00,67.0,60.3,29.52,West,270,0.0,0.0,79,0.00,,---,0.00,VWS V13.01,2013-06-06 16:27:00,
2013-06-06 09:32:00,68.0,61.6,29.53,West,270,0.0,0.0,80,0.00,,---,0.00,VWS V13.01,2013-06-06 16:32:00,
2013-06-06 09:37:00,68.0,61.6,29.53,SSW,202,0.0,0.0,80,0.00,,---,0.00,VWS V13.01,2013-06-06 16:37:00,
2013-06-06 09:43:00,69.0,62.6,29.53,West,270,0.0,0.0,80,0.00,,---,0.00,VWS V13.01,2013-06-06 16:43:00,
2013-06-06 09:48:00,69.0,62.6,29.53,WNW,292,0.0,0.0,80,0.00,,---,0.00,VWS V13.01,2013-06-06 16:48:00,
2013-06-06 09:53:00,69.0,62.6,29.53,WSW,247,0.0,0.0,80,0.00,,---,0.00,VWS V13.01,2013-06-06 16:53:00,
2013-06-06 09:58:00,70.0,63.5,29.52,SSW,202,0.0,0.0,80,0.00,,---,0.00,VWS V13.01,2013-06-06 16:58:00,
2013-06-06 10:03:00,71.0,64.5,29.51,WSW,247,0.0,0.0,80,0.00,,---,0.00,VWS V13.01,2013-06-06 17:03:00,
2013-06-06 10:08:00,71.0,64.5,29.51,West,270,0.0,0.0,80,0.00,,---,0.00,VWS V13.01,2013-06-06 17:08:00,
2013-06-06 10:13:00,72.0,65.5,29.51,WNW,292,0.0,0.0,80,0.00,,---,0.00,VWS V13.01,2013-06-06 17:13:00,
2013-06-06 10:17:00,72.0,65.5,29.51,WSW,247,0.0,0.0,80,0.00,,---,0.00,VWS V13.01,2013-06-06 17:17:00,
2013-06-06 10:22:00,73.0,66.5,29.51,NNW,337,0.0,0.0,80,0.00,,---,0.00,VWS V13.01,2013-06-06 17:22:00,
2013-06-06 10:27:00,73.0,66.5,29.51,WNW,292,0.0,0.0,80,0.00,,---,0.00,VWS V13.01,2013-06-06 17:27:00,
2013-06-06 10:32:00,74.0,67.4,29.49,SW,225,0.0,0.0,80,0.00,,---,0.00,VWS V13.01,2013-06-06 17:32:00,
2013-06-06 10:37:00,74.0,67.4,29.49,West,270,0.0,0.0,80,0.00,,---,0.00,VWS V13.01,2013-06-06 17:37:00,
2013-06-06 10:42:00,75.0,68.4,29.49,West,270,0.0,0.0,80,0.00,,---,0.00,VWS V13.01,2013-06-06 17:42:00,
2013-06-06 10:47:00,74.0,67.4,29.49,NW,315,0.0,0.0,80,0.00,,---,0.00,VWS V13.01,2013-06-06 17:47:00,
2013-06-06 10:52:00,75.0,68.4,29.50,WNW,292,0.0,0.0,80,0.00,,---,0.00,VWS V13.01,2013-06-06 17:52:00,
2013-06-06 10:57:00,76.0,69.8,29.50,West,270,0.0,0.0,81,0.00,,---,0.00,VWS V13.01,2013-06-06 17:57:00,
2013-06-06 11:02:00,77.0,70.7,29.48,WNW,292,0.0,2.0,81,0.00,,---,0.00,VWS V13.01,2013-06-06 18:02:00,
2013-06-06 11:07:00,77.0,70.7,29.48,SW,225,0.0,0.0,81,0.00,,---,0.00,VWS V13.01,2013-06-06 18:07:00,
2013-06-06 11:12:00,78.0,71.7,29.49,SW,225,0.0,0.0,81,0.00,,---,0.00,VWS V13.01,2013-06-06 18:12:00,
2013-06-06 11:17:00,78.0,71.7,29.49,WNW,292,0.0,0.0,81,0.00,,---,0.00,VWS V13.01,2013-06-06 18:17:00,
2013-06-06 11:22:00,78.0,71.7,29.48,WSW,247,0.0,0.0,81,0.00,,---,0.00,VWS V13.01,2013-06-06 18:22:00,
2013-06-06 11:27:00,78.0,71.7,29.48,WNW,292,0.0,0.0,81,0.00,,---,0.00,VWS V13.01,2013-06-06 18:27:00,
2013-06-06 11:32:00,79.0,72.7,29.47,West,270,0.0,0.0,81,0.00,,---,0.00,VWS V13.01,2013-06-06 18:32:00,
2013-06-06 11:37:00,79.0,72.7,29.47,NW,315,0.0,0.0,81,0.00,,---,0.00,VWS V13.01,2013-06-06 18:37:00,
2013-06-06 11:42:00,80.0,73.7,29.47,SW,225,0.0,1.0,81,0.00,,---,0.00,VWS V13.01,2013-06-06 18:42:00,
2013-06-06 11:47:00,80.0,73.7,29.47,WNW,292,0.0,0.0,81,0.00,,---,0.00,VWS V13.01,2013-06-06 18:47:00,
2013-06-06 11:52:00,80.0,73.7,29.47,SSW,202,0.0,0.0,81,0.00,,---,0.00,VWS V13.01,2013-06-06 18:52:00,
2013-06-06 11:57:00,80.0,73.7,29.48,WNW,292,0.0,0.0,81,0.00,,---,0.00,VWS V13.01,2013-06-06 18:57:00,
2013-06-06 12:02:00,81.0,74.6,29.48,NW,315,0.0,0.0,81,0.00,,---,0.00,VWS V13.01,2013-06-06 19:02:00,
2013-06-06 12:07:00,81.0,74.6,29.46,WSW,247,0.0,0.0,81,0.00,,---,0.00,VWS V13.01,2013-06-06 19:07:00,
2013-06-06 12:12:00,81.0,74.6,29.46,South,180,0.0,0.0,81,0.00,,---,0.00,VWS V13.01,2013-06-06 19:12:00,
2013-06-06 12:17:00,81.0,74.6,29.46,South,180,0.0,0.0,81,0.00,,---,0.00,VWS V13.01,2013-06-06 19:17:00,
2013-06-06 12:22:00,82.0,75.6,29.46,WSW,247,0.0,0.0,81,0.00,,---,0.00,VWS V13.01,2013-06-06 19:22:00,
2013-06-06 12:27:00,82.0,75.6,29.46,NW,315,0.0,0.0,81,0.00,,---,0.00,VWS V13.01,2013-06-06 19:27:00,
2013-06-06 12:32:00,83.0,76.6,29.46,NW,315,0.0,0.0,81,0.00,,---,0.00,VWS V13.01,2013-06-06 19:32:00,
2013-06-06 12:34:00,83.0,76.6,29.45,North,360,0.0,0.0,81,0.00,,---,0.00,VWS V13.01,2013-06-06 19:34:00,
2013-06-06 12:39:00,84.0,77.9,29.45,North,360,0.0,0.0,82,0.00,,---,0.00,VWS V13.01,2013-06-06 19:39:00,
2013-06-06 12:44:00,83.0,76.6,29.45,West,270,0.0,0.0,81,0.00,,---,0.00,VWS V13.01,2013-06-06 19:44:00,
2013-06-06 12:49:00,83.0,76.6,29.45,NW,315,0.0,0.0,81,0.00,,---,0.00,VWS V13.01,2013-06-06 19:49:00,
2013-06-06 12:54:00,84.0,77.9,29.45,West,270,0.0,2.0,82,0.00,,---,0.00,VWS V13.01,2013-06-06 19:54:00,
2013-06-06 12:59:00,84.0,77.9,29.45,NNE,22,0.0,0.0,82,0.00,,---,0.00,VWS V13.01,2013-06-06 19:59:00,
2013-06-06 13:04:00,85.0,78.9,29.44,NNE,22,0.0,0.0,82,0.00,,---,0.00,VWS V13.01,2013-06-06 20:04:00,
2013-06-06 13:09:00,84.0,77.9,29.44,West,270,0.0,0.0,82,0.00,,---,0.00,VWS V13.01,2013-06-06 20:09:00,
2013-06-06 13:14:00,85.0,78.9,29.44,North,360,0.0,0.0,82,0.00,,---,0.00,VWS V13.01,2013-06-06 20:14:00,
2013-06-06 13:19:00,85.0,78.9,29.44,North,360,0.0,0.0,82,0.00,,---,0.00,VWS V13.01,2013-06-06 20:19:00,
2013-06-06 13:24:00,86.0,79.9,29.43,SW,225,0.0,0.0,82,0.00,,---,0.00,VWS V13.01,2013-06-06 20:24:00,
2013-06-06 13:29:00,86.0,79.9,29.43,NNE,22,0.0,0.0,82,0.00,,---,0.00,VWS V13.01,2013-06-06 20:29:00,
2013-06-06 13:34:00,86.0,79.9,29.43,NNE,22,0.0,0.0,82,0.00,,---,0.00,VWS V13.01,2013-06-06 20:34:00,
2013-06-06 13:39:00,87.0,80.8,29.43,North,360,0.0,0.0,82,0.00,,---,0.00,VWS V13.01,2013-06-06 20:39:00,
2013-06-06 13:44:00,88.0,81.8,29.42,WNW,292,0.0,0.0,82,0.00,,---,0.00,VWS V13.01,2013-06-06 20:44:00,
2013-06-06 13:49:00,88.0,81.8,29.42,NNE,22,0.0,0.0,82,0.00,,---,0.00,VWS V13.01,2013-06-06 20:49:00,
2013-06-06 13:54:00,88.0,81.8,29.42,NW,315,0.0,1.0,82,0.00,,---,0.00,VWS V13.01,2013-06-06 20:54:00,
2013-06-06 13:59:00,88.0,81.8,29.42,North,360,0.0,0.0,82,0.00,,---,0.00,VWS V13.01,2013-06-06 20:59:00,
2013-06-06 14:04:00,89.0,82.8,29.41,WNW,292,1.0,2.0,82,0.00,,---,0.00,VWS V13.01,2013-06-06 21:04:00,
2013-06-06 14:09:00,90.0,83.8,29.41,West,270,0.0,0.0,82,0.00,,---,0.00,VWS V13.01,2013-06-06 21:09:00,
2013-06-06 14:14:00,91.0,84.7,29.40,WSW,247,0.0,0.0,82,0.00,,---,0.00,VWS V13.01,2013-06-06 21:14:00,
2013-06-06 14:19:00,91.0,84.7,29.40,West,270,0.0,0.0,82,0.00,,---,0.00,VWS V13.01,2013-06-06 21:19:00,
2013-06-06 14:24:00,91.0,84.7,29.39,NNE,22,0.0,0.0,82,0.00,,---,0.00,VWS V13.01,2013-06-06 21:24:00,
2013-06-06 14:29:00,92.0,86.1,29.39,North,360,0.0,0.0,83,0.00,,---,0.00,VWS V13.01,2013-06-06 21:29:00,
2013-06-06 14:34:00,92.0,86.1,29.39,WNW,292,0.0,0.0,83,0.00,,---,0.00,VWS V13.01,2013-06-06 21:34:00,
2013-06-06 14:39:00,92.0,86.1,29.39,NW,315,0.0,0.0,83,0.00,,---,0.00,VWS V13.01,2013-06-06 21:39:00,
2013-06-06 14:44:00,93.0,87.1,29.38,SW,225,0.0,3.0,83,0.00,,---,0.00,VWS V13.01,2013-06-06 21:44:00,
2013-06-06 14:49:00,92.0,86.1,29.38,WNW,292,0.0,0.0,83,0.00,,---,0.00,VWS V13.01,2013-06-06 21:49:00,
2013-06-06 14:54:00,92.0,86.1,29.38,WNW,292,0.0,0.0,83,0.00,,---,0.00,VWS V13.01,2013-06-06 21:54:00,
2013-06-06 14:59:00,92.0,86.1,29.38,WNW,292,1.0,3.0,83,0.00,,---,0.00,VWS V13.01,2013-06-06 21:59:00,
2013-06-06 15:04:00,93.0,87.1,29.38,North,360,0.0,0.0,83,0.00,,---,0.00,VWS V13.01,2013-06-06 22:04:00,
2013-06-06 15:09:00,93.0,87.1,29.38,North,360,0.0,0.0,83,0.00,,---,0.00,VWS V13.01,2013-06-06 22:09:00,
2013-06-06 15:14:00,94.0,88.1,29.37,WNW,292,0.0,0.0,83,0.00,,---,0.00,VWS V13.01,2013-06-06 22:14:00,
2013-06-06 15:19:00,94.0,88.1,29.37,West,270,0.0,0.0,83,0.00,,---,0.00,VWS V13.01,2013-06-06 22:19:00,
2013-06-06 15:24:00,93.0,87.1,29.37,NW,315,0.0,0.0,83,0.00,,---,0.00,VWS V13.01,2013-06-06 22:24:00,
2013-06-06 15:29:00,92.0,86.1,29.37,WSW,247,0.0,0.0,83,0.00,,---,0.00,VWS V13.01,2013-06-06 22:29:00,
2013-06-06 15:34:00,92.0,86.1,29.37,West,270,0.0,0.0,83,0.00,,---,0.00,VWS V13.01,2013-06-06 22:34:00,
2013-06-06 15:39:00,93.0,87.1,29.37,NW,315,0.0,0.0,83,0.00,,---,0.00,VWS V13.01,2013-06-06 22:39:00,
2013-06-06 15:44:00,95.0,89.0,29.36,West,270,0.0,0.0,83,0.00,,---,0.00,VWS V13.01,2013-06-06 22:44:00,
2013-06-06 15:49:00,95.0,89.0,29.36,WNW,292,0.0,0.0,83,0.00,,---,0.00,VWS V13.01,2013-06-06 22:49:00,
2013-06-06 15:54:00,95.0,89.0,29.36,North,360,0.0,0.0,83,0.00,,---,0.00,VWS V13.01,2013-06-06 22:54:00,
2013-06-06 15:59:00,95.0,89.0,29.36,NW,315,0.0,0.0,83,0.00,,---,0.00,VWS V13.01,2013-06-06 22:59:00,
2013-06-06 16:04:00,95.0,89.0,29.36,NW,315,0.0,0.0,83,0.00,,---,0.00,VWS V13.01,2013-06-06 23:04:00,
2013-06-06 16:09:00,95.0,89.0,29.36,NW,315,0.0,0.0,83,0.00,,---,0.00,VWS V13.01,2013-06-06 23:09:00,
2013-06-06 16:14:00,96.0,90.0,29.35,NNE,22,0.0,0.0,83,0.00,,---,0.00,VWS V13.01,2013-06-06 23:14:00,
2013-06-06 16:19:00,95.0,89.0,29.35,WNW,292,0.0,0.0,83,0.00,,---,0.00,VWS V13.01,2013-06-06 23:19:00,
2013-06-06 16:24:00,96.0,90.0,29.34,WNW,292,0.0,0.0,83,0.00,,---,0.00,VWS V13.01,2013-06-06 23:24:00,
2013-06-06 16:29:00,96.0,90.0,29.34,North,360,0.0,0.0,83,0.00,,---,0.00,VWS V13.01,2013-06-06 23:29:00,
2013-06-06 16:34:00,96.0,90.0,29.34,North,360,0.0,0.0,83,0.00,,---,0.00,VWS V13.01,2013-06-06 23:34:00,
2013-06-06 16:39:00,96.0,90.0,29.33,NW,315,0.0,0.0,83,0.00,,---,0.00,VWS V13.01,2013-06-06 23:39:00,
2013-06-06 16:44:00,97.0,91.0,29.34,NNW,337,0.0,0.0,83,0.00,,---,0.00,VWS V13.01,2013-06-06 23:44:00,
2013-06-06 16:49:00,97.0,91.0,29.34,NNW,337,0.0,0.0,83,0.00,,---,0.00,VWS V13.01,2013-06-06 23:49:00,
2013-06-06 16:54:00,97.0,91.0,29.33,NNE,22,0.0,0.0,83,0.00,,---,0.00,VWS V13.01,2013-06-06 23:54:00,
2013-06-06 16:59:00,97.0,91.0,29.33,NNE,22,0.0,0.0,83,0.00,,---,0.00,VWS V13.01,2013-06-06 23:59:00,
2013-06-06 17:04:00,97.0,91.0,29.33,NNE,22,0.0,0.0,83,0.00,,---,0.00,VWS V13.01,2013-06-07 00:04:00,
2013-06-06 17:09:00,98.0,91.9,29.33,North,360,0.0,0.0,83,0.00,,---,0.00,VWS V13.01,2013-06-07 00:09:00,
2013-06-06 17:14:00,98.0,91.9,29.33,West,270,0.0,0.0,83,0.00,,---,0.00,VWS V13.01,2013-06-07 00:14:00,
2013-06-06 17:19:00,98.0,91.9,29.33,West,270,0.0,0.0,83,0.00,,---,0.00,VWS V13.01,2013-06-07 00:19:00,
2013-06-06 17:24:00,98.0,91.9,29.33,NW,315,0.0,0.0,83,0.00,,---,0.00,VWS V13.01,2013-06-07 00:24:00,
2013-06-06 17:29:00,98.0,91.9,29.33,SSW,202,0.0,0.0,83,0.00,,---,0.00,VWS V13.01,2013-06-07 00:29:00,
2013-06-06 17:31:00,98.0,91.9,29.33,SSW,202,0.0,0.0,83,0.00,,---,0.00,VWS V13.01,2013-06-07 00:31:00,
2013-06-06 17:34:00,98.0,91.9,29.33,SSW,202,0.0,0.0,83,0.00,,---,0.00,VWS V13.01,2013-06-07 00:34:00,
2013-06-06 17:39:00,98.0,91.9,29.33,SSW,202,0.0,0.0,83,0.00,,---,0.00,VWS V13.01,2013-06-07 00:39:00,
2013-06-06 17:44:00,98.0,91.9,29.31,SSW,202,0.0,0.0,83,0.00,,---,0.00,VWS V13.01,2013-06-07 00:44:00,
2013-06-06 17:49:00,98.0,91.9,29.31,SSW,202,0.0,0.0,83,0.00,,---,0.00,VWS V13.01,2013-06-07 00:49:00,
2013-06-06 17:54:00,98.0,91.9,29.33,SSW,202,0.0,0.0,83,0.00,,---,0.00,VWS V13.01,2013-06-07 00:54:00,
2013-06-06 17:59:00,98.0,91.9,29.33,SW,225,0.0,0.0,83,0.00,,---,0.00,VWS V13.01,2013-06-07 00:59:00,
2013-06-06 18:04:00,97.0,91.0,29.31,SW,225,0.0,0.0,83,0.00,,---,0.00,VWS V13.01,2013-06-07 01:04:00,
2013-06-06 18:09:00,97.0,91.0,29.31,SW,225,0.0,0.0,83,0.00,,---,0.00,VWS V13.01,2013-06-07 01:09:00,
2013-06-06 18:14:00,97.0,91.0,29.31,SW,225,0.0,0.0,83,0.00,,---,0.00,VWS V13.01,2013-06-07 01:14:00,
2013-06-06 18:19:00,97.0,91.0,29.31,West,270,0.0,0.0,83,0.00,,---,0.00,VWS V13.01,2013-06-07 01:19:00,
2013-06-06 18:24:00,97.0,91.0,29.31,South,180,0.0,0.0,83,0.00,,---,0.00,VWS V13.01,2013-06-07 01:24:00,
2013-06-06 18:29:00,96.0,90.0,29.31,SW,225,0.0,2.0,83,0.00,,---,0.00,VWS V13.01,2013-06-07 01:29:00,
2013-06-06 18:34:00,95.0,89.0,29.32,West,270,0.0,0.0,83,0.00,,---,0.00,VWS V13.01,2013-06-07 01:34:00,
2013-06-06 18:39:00,95.0,89.0,29.32,WNW,292,0.0,0.0,83,0.00,,---,0.00,VWS V13.01,2013-06-07 01:39:00,
2013-06-06 18:44:00,95.0,89.0,29.32,SW,225,0.0,0.0,83,0.00,,---,0.00,VWS V13.01,2013-06-07 01:44:00,
2013-06-06 18:49:00,95.0,89.0,29.32,WNW,292,0.0,0.0,83,0.00,,---,0.00,VWS V13.01,2013-06-07 01:49:00,
2013-06-06 18:54:00,95.0,89.0,29.32,West,270,0.0,0.0,83,0.00,,---,0.00,VWS V13.01,2013-06-07 01:54:00,
2013-06-06 18:59:00,95.0,89.0,29.32,West,270,0.0,0.0,83,0.00,,---,0.00,VWS V13.01,2013-06-07 01:59:00,
2013-06-06 19:04:00,94.0,88.1,29.31,West,270,0.0,0.0,83,0.00,,---,0.00,VWS V13.01,2013-06-07 02:04:00,
2013-06-06 19:09:00,94.0,88.1,29.31,West,270,0.0,0.0,83,0.00,,---,0.00,VWS V13.01,2013-06-07 02:09:00,
2013-06-06 19:14:00,93.0,87.1,29.32,WNW,292,0.0,0.0,83,0.00,,---,0.00,VWS V13.01,2013-06-07 02:14:00,
2013-06-06 19:19:00,93.0,87.1,29.32,WNW,292,0.0,0.0,83,0.00,,---,0.00,VWS V13.01,2013-06-07 02:19:00,
2013-06-06 19:24:00,92.0,86.1,29.33,WNW,292,0.0,0.0,83,0.00,,---,0.00,VWS V13.01,2013-06-07 02:24:00,
2013-06-06 19:29:00,91.0,84.7,29.33,WNW,292,0.0,0.0,82,0.00,,---,0.00,VWS V13.01,2013-06-07 02:29:00,
2013-06-06 19:34:00,90.0,83.8,29.33,WNW,292,0.0,0.0,82,0.00,,---,0.00,VWS V13.01,2013-06-07 02:34:00,
2013-06-06 19:39:00,89.0,82.8,29.33,WNW,292,0.0,0.0,82,0.00,,---,0.00,VWS V13.01,2013-06-07 02:39:00,
2013-06-06 19:44:00,89.0,82.8,29.33,WNW,292,0.0,0.0,82,0.00,,---,0.00,VWS V13.01,2013-06-07 02:44:00,
2013-06-06 19:49:00,88.0,81.8,29.33,WNW,292,0.0,0.0,82,0.00,,---,0.00,VWS V13.01,2013-06-07 02:49:00,
2013-06-06 19:54:00,88.0,81.8,29.34,WNW,292,0.0,0.0,82,0.00,,---,0.00,VWS V13.01,2013-06-07 02:54:00,
2013-06-06 19:59:00,87.0,80.8,29.34,WSW,247,0.0,0.0,82,0.00,,---,0.00,VWS V13.01,2013-06-07 02:59:00,
2013-06-06 20:04:00,86.0,79.9,29.33,WNW,292,0.0,0.0,82,0.00,,---,0.00,VWS V13.01,2013-06-07 03:04:00,
2013-06-06 20:09:00,86.0,79.9,29.33,WNW,292,0.0,0.0,82,0.00,,---,0.00,VWS V13.01,2013-06-07 03:09:00,
2013-06-06 20:14:00,85.0,78.9,29.35,NW,315,0.0,0.0,82,0.00,,---,0.00,VWS V13.01,2013-06-07 03:14:00,
2013-06-06 20:19:00,84.0,77.9,29.35,NW,315,0.0,0.0,82,0.00,,---,0.00,VWS V13.01,2013-06-07 03:19:00,
2013-06-06 20:24:00,83.0,76.6,29.35,NW,315,0.0,0.0,81,0.00,,---,0.00,VWS V13.01,2013-06-07 03:24:00,
2013-06-06 20:29:00,82.0,75.6,29.35,NW,315,0.0,0.0,81,0.00,,---,0.00,VWS V13.01,2013-06-07 03:29:00,
2013-06-06 20:34:00,82.0,75.6,29.35,NW,315,0.0,0.0,81,0.00,,---,0.00,VWS V13.01,2013-06-07 03:34:00,
2013-06-06 20:39:00,81.0,74.6,29.35,NW,315,0.0,0.0,81,0.00,,---,0.00,VWS V13.01,2013-06-07 03:39:00,
2013-06-06 20:44:00,80.0,73.7,29.37,NW,315,0.0,0.0,81,0.00,,---,0.00,VWS V13.01,2013-06-07 03:44:00,
2013-06-06 20:49:00,79.0,72.7,29.37,NW,315,0.0,0.0,81,0.00,,---,0.00,VWS V13.01,2013-06-07 03:49:00,
2013-06-06 20:54:00,78.0,71.7,29.37,NW,315,0.0,0.0,81,0.00,,---,0.00,VWS V13.01,2013-06-07 03:54:00,
2013-06-06 20:59:00,78.0,71.7,29.37,NW,315,0.0,0.0,81,0.00,,---,0.00,VWS V13.01,2013-06-07 03:59:00,
2013-06-06 21:01:00,77.0,70.7,29.37,NW,315,0.0,0.0,81,0.00,,---,0.00,VWS V13.01,2013-06-07 04:01:00,
2013-06-06 21:02:00,77.0,70.7,29.39,NW,315,0.0,0.0,81,0.00,,---,0.00,VWS V13.01,2013-06-07 04:02:00,
2013-06-06 21:07:00,77.0,70.7,29.39,NW,315,0.0,0.0,81,0.00,,---,0.00,VWS V13.01,2013-06-07 04:07:00,
2013-06-06 21:12:00,77.0,70.7,29.39,NW,315,0.0,0.0,81,0.00,,---,0.00,VWS V13.01,2013-06-07 04:12:00,
2013-06-06 21:17:00,76.0,69.8,29.39,NW,315,0.0,0.0,81,0.00,,---,0.00,VWS V13.01,2013-06-07 04:17:00,
2013-06-06 21:22:00,76.0,69.8,29.41,NW,315,0.0,0.0,81,0.00,,---,0.00,VWS V13.01,2013-06-07 04:22:00,
2013-06-06 21:27:00,75.0,68.4,29.41,NW,315,0.0,0.0,80,0.00,,---,0.00,VWS V13.01,2013-06-07 04:27:00,
2013-06-06 21:32:00,75.0,68.4,29.40,NW,315,0.0,0.0,80,0.00,,---,0.00,VWS V13.01,2013-06-07 04:32:00,
2013-06-06 21:37:00,74.0,67.4,29.40,NW,315,0.0,0.0,80,0.00,,---,0.00,VWS V13.01,2013-06-07 04:37:00,
2013-06-06 21:42:00,74.0,67.4,29.41,NW,315,0.0,0.0,80,0.00,,---,0.00,VWS V13.01,2013-06-07 04:42:00,
2013-06-06 21:47:00,73.0,66.5,29.41,NW,315,0.0,0.0,80,0.00,,---,0.00,VWS V13.01,2013-06-07 04:47:00,
2013-06-06 21:52:00,73.0,66.5,29.41,NW,315,0.0,0.0,80,0.00,,---,0.00,VWS V13.01,2013-06-07 04:52:00,
2013-06-06 21:57:00,73.0,66.5,29.41,NW,315,0.0,0.0,80,0.00,,---,0.00,VWS V13.01,2013-06-07 04:57:00,
2013-06-06 22:02:00,72.0,65.5,29.41,NW,315,0.0,0.0,80,0.00,,---,0.00,VWS V13.01,2013-06-07 05:02:00,
2013-06-06 22:07:00,72.0,65.5,29.42,NW,315,0.0,0.0,80,0.00,,---,0.00,VWS V13.01,2013-06-07 05:07:00,
2013-06-06 22:12:00,72.0,65.5,29.42,NW,315,0.0,0.0,80,0.00,,---,0.00,VWS V13.01,2013-06-07 05:12:00,
2013-06-06 22:17:00,71.0,64.5,29.42,NW,315,0.0,0.0,80,0.00,,---,0.00,VWS V13.01,2013-06-07 05:17:00,
2013-06-06 22:22:00,71.0,64.5,29.43,NW,315,0.0,0.0,80,0.00,,---,0.00,VWS V13.01,2013-06-07 05:22:00,
2013-06-06 22:27:00,71.0,64.5,29.43,NW,315,0.0,0.0,80,0.00,,---,0.00,VWS V13.01,2013-06-07 05:27:00,
2013-06-06 22:32:00,71.0,64.5,29.43,NW,315,0.0,0.0,80,0.00,,---,0.00,VWS V13.01,2013-06-07 05:32:00,
2013-06-06 22:37:00,70.0,63.5,29.43,NW,315,0.0,0.0,80,0.00,,---,0.00,VWS V13.01,2013-06-07 05:37:00,
2013-06-06 22:42:00,70.0,63.5,29.43,NW,315,0.0,0.0,80,0.00,,---,0.00,VWS V13.01,2013-06-07 05:42:00,
2013-06-06 22:47:00,69.0,62.6,29.43,NW,315,0.0,0.0,80,0.00,,---,0.00,VWS V13.01,2013-06-07 05:47:00,
2013-06-06 22:52:00,69.0,62.6,29.44,NW,315,0.0,0.0,80,0.00,,---,0.00,VWS V13.01,2013-06-07 05:52:00,
2013-06-06 22:57:00,69.0,62.6,29.44,NW,315,0.0,0.0,80,0.00,,---,0.00,VWS V13.01,2013-06-07 05:57:00,
2013-06-06 23:02:00,69.0,62.6,29.42,NW,315,0.0,0.0,80,0.00,,---,0.00,VWS V13.01,2013-06-07 06:02:00,
2013-06-06 23:07:00,69.0,62.6,29.42,NW,315,0.0,0.0,80,0.00,,---,0.00,VWS V13.01,2013-06-07 06:07:00,
2013-06-06 23:12:00,68.0,61.6,29.42,NW,315,0.0,0.0,80,0.00,,---,0.00,VWS V13.01,2013-06-07 06:12:00,
2013-06-06 23:17:00,68.0,61.6,29.43,NW,315,0.0,0.0,80,0.00,,---,0.00,VWS V13.01,2013-06-07 06:17:00,
2013-06-06 23:22:00,68.0,61.6,29.43,NW,315,0.0,0.0,80,0.00,,---,0.00,VWS V13.01,2013-06-07 06:22:00,
2013-06-06 23:27:00,68.0,61.6,29.43,NW,315,0.0,0.0,80,0.00,,---,0.00,VWS V13.01,2013-06-07 06:27:00,
2013-06-06 23:32:00,68.0,61.6,29.43,NNE,22,0.0,0.0,80,0.00,,---,0.00,VWS V13.01,2013-06-07 06:32:00,
2013-06-06 23:37:00,69.0,62.6,29.43,ESE,112,0.0,0.0,80,0.00,,---,0.00,VWS V13.01,2013-06-07 06:37:00,
2013-06-06 23:42:00,69.0,62.6,29.43,ESE,112,0.0,0.0,80,0.00,,---,0.00,VWS V13.01,2013-06-07 06:42:00,
2013-06-06 23:47:00,69.0,62.6,29.43,East,90,0.0,0.0,80,0.00,,---,0.00,VWS V13.01,2013-06-07 06:47:00,
2013-06-06 23:52:00,69.0,62.6,29.43,East,90,0.0,0.0,80,0.00,,---,0.00,VWS V13.01,2013-06-07 06:52:00,
2013-06-06 23:57:00,69.0,62.6,29.43,NW,315,0.0,0.0,80,0.00,,---,0.00,VWS V13.01,2013-06-07 06:57:00,